RYR9FX EETN-LIMC

Flight info

Callsign RYR9FX
Flight time N/A
Altitude 36000
Route LONSA DCT TODNA DCT EVONA DCT DIPEB DCT PENOR DCT ABSAG DCT SAWAZ DCT NURGO DCT OSDOV DCT WFJ DCT ABREG DCT SRN
Aircraft B738/M-SDE2E3FGHIRWXY/LB1

Departure

Time 2026-04-28 18:07
Airport Lennart Meri Tallinn Airport (EETN)

Arrival

Time N/A
Airport Milan Malpensa International Airport (LIMC)
Time Latitude Longitude Altitude Speed Heading
2026-04-28 17:45 59.41692 24.80345 140 ft 0 kts 286°
2026-04-28 17:59 59.41691 24.80356 140 ft 2 kts 286°
2026-04-28 17:59 59.41687 24.80383 140 ft 2 kts 285°
2026-04-28 17:59 59.41683 24.80411 140 ft 2 kts 286°
2026-04-28 18:00 59.41679 24.80439 140 ft 2 kts 286°
2026-04-28 18:00 59.41676 24.80457 140 ft 2 kts 280°
2026-04-28 18:00 59.41680 24.80484 140 ft 2 kts 229°
2026-04-28 18:00 59.41692 24.80499 140 ft 2 kts 187°
2026-04-28 18:01 59.41704 24.80496 140 ft 0 kts 153°
2026-04-28 18:01 59.41710 24.80489 140 ft 0 kts 149°
2026-04-28 18:01 59.41710 24.80488 140 ft 0 kts 149°
2026-04-28 18:02 59.41710 24.80489 140 ft 0 kts 149°
2026-04-28 18:03 59.41675 24.80520 140 ft 11 kts 168°
2026-04-28 18:03 59.41549 24.80522 140 ft 24 kts 167°
2026-04-28 18:03 59.41506 24.80887 140 ft 36 kts 89°
2026-04-28 18:03 59.41505 24.81447 140 ft 41 kts 94°
2026-04-28 18:04 59.41504 24.81996 140 ft 39 kts 88°
2026-04-28 18:04 59.41507 24.82522 140 ft 37 kts 88°
2026-04-28 18:04 59.41507 24.83012 140 ft 35 kts 93°
2026-04-28 18:04 59.41500 24.83481 140 ft 34 kts 91°
2026-04-28 18:05 59.41499 24.83977 140 ft 38 kts 89°
2026-04-28 18:05 59.41502 24.84335 140 ft 40 kts 91°
2026-04-28 18:05 59.41495 24.85104 140 ft 44 kts 89°
2026-04-28 18:05 59.41510 24.85734 140 ft 47 kts 91°
2026-04-28 18:06 59.41496 24.86389 140 ft 48 kts 91°
2026-04-28 18:06 59.41416 24.86714 140 ft 21 kts 176°
2026-04-28 18:06 59.41318 24.86577 139 ft 18 kts 265°
2026-04-28 18:06 59.41322 24.86293 140 ft 34 kts 270°
2026-04-28 18:07 59.41325 24.85393 140 ft 96 kts 269°
2026-04-28 18:07 59.41326 24.83683 140 ft 149 kts 270°
2026-04-28 18:07 59.41318 24.81517 531 ft 160 kts 272°
2026-04-28 18:07 59.41326 24.79315 1089 ft 165 kts 276°
2026-04-28 18:08 59.41343 24.76994 1496 ft 181 kts 269°
2026-04-28 18:08 59.40812 24.74638 1891 ft 204 kts 236°
2026-04-28 18:08 59.39875 24.72436 2323 ft 220 kts 235°
2026-04-28 18:08 59.38917 24.69949 2767 ft 236 kts 238°
2026-04-28 18:09 59.37966 24.67225 3246 ft 251 kts 240°
2026-04-28 18:09 59.36975 24.64331 3840 ft 263 kts 240°
2026-04-28 18:09 59.35877 24.61360 4379 ft 278 kts 236°
2026-04-28 18:09 59.34633 24.58382 5135 ft 284 kts 233°
2026-04-28 18:10 59.33362 24.55440 5923 ft 287 kts 233°
2026-04-28 18:10 59.32087 24.52458 6688 ft 290 kts 234°
2026-04-28 18:10 59.30797 24.49397 7495 ft 292 kts 234°
2026-04-28 18:10 59.29521 24.46343 8246 ft 295 kts 234°
2026-04-28 18:11 59.28229 24.43244 9025 ft 297 kts 234°
2026-04-28 18:11 59.26914 24.40099 9776 ft 300 kts 234°
2026-04-28 18:11 59.25600 24.36962 10479 ft 304 kts 234°
2026-04-28 18:11 59.24226 24.33680 10890 ft 319 kts 233°
2026-04-28 18:12 59.22791 24.30251 11270 ft 334 kts 233°
2026-04-28 18:12 59.21290 24.26667 11624 ft 350 kts 233°
2026-04-28 18:12 59.19709 24.22899 11983 ft 365 kts 233°
2026-04-28 18:12 59.18066 24.18998 12332 ft 379 kts 233°
2026-04-28 18:13 59.16338 24.14904 12610 ft 395 kts 232°
2026-04-28 18:13 59.14569 24.10722 12917 ft 410 kts 232°
2026-04-28 18:13 59.12734 24.06393 13300 ft 421 kts 232°
2026-04-28 18:13 59.10857 24.01982 13972 ft 425 kts 232°
2026-04-28 18:14 59.08968 23.97551 14616 ft 429 kts 232°
2026-04-28 18:14 59.07067 23.93103 15277 ft 433 kts 233°
2026-04-28 18:14 59.05145 23.88616 15901 ft 436 kts 233°
2026-04-28 18:14 59.03210 23.84103 16519 ft 440 kts 233°
2026-04-28 18:15 59.01231 23.79493 17105 ft 443 kts 233°
2026-04-28 18:15 58.99276 23.74943 17702 ft 446 kts 233°
2026-04-28 18:15 58.97290 23.70327 18277 ft 450 kts 233°
2026-04-28 18:15 58.95283 23.65668 18846 ft 453 kts 233°
2026-04-28 18:16 58.93254 23.60966 19408 ft 456 kts 233°
2026-04-28 18:16 58.91202 23.56221 19884 ft 462 kts 233°
2026-04-28 18:16 58.89149 23.51484 20411 ft 464 kts 233°
2026-04-28 18:16 58.87064 23.46682 20932 ft 467 kts 233°
2026-04-28 18:17 58.84986 23.41905 21379 ft 472 kts 233°
2026-04-28 18:17 58.82865 23.37039 21838 ft 475 kts 233°
2026-04-28 18:17 58.80754 23.32208 22282 ft 479 kts 232°
2026-04-28 18:17 58.78592 23.27271 22776 ft 481 kts 232°
2026-04-28 18:18 58.76448 23.22386 23180 ft 485 kts 232°
2026-04-28 18:18 58.74265 23.17420 23607 ft 488 kts 232°
2026-04-28 18:18 58.72069 23.12437 24053 ft 491 kts 232°
2026-04-28 18:18 58.70587 23.09081 24313 ft 493 kts 232°
2026-04-28 18:19 58.67629 23.02394 24847 ft 497 kts 232°
2026-04-28 18:19 58.65403 22.97377 25191 ft 501 kts 232°
2026-04-28 18:19 58.63115 22.92227 25512 ft 505 kts 232°
2026-04-28 18:19 58.60836 22.87111 25921 ft 506 kts 232°
2026-04-28 18:20 58.58567 22.82031 26386 ft 505 kts 232°
2026-04-28 18:20 58.56278 22.76919 26796 ft 505 kts 232°
2026-04-28 18:20 58.53995 22.71831 27156 ft 506 kts 232°
2026-04-28 18:20 58.51725 22.66781 27497 ft 506 kts 232°
2026-04-28 18:21 58.49426 22.61676 27889 ft 506 kts 232°
2026-04-28 18:21 58.47134 22.56602 28208 ft 507 kts 233°
2026-04-28 18:21 58.44861 22.51576 28525 ft 507 kts 233°
2026-04-28 18:21 58.42554 22.46487 28882 ft 507 kts 232°
2026-04-28 18:22 58.40257 22.41430 29175 ft 508 kts 233°
2026-04-28 18:22 58.37940 22.36341 29431 ft 509 kts 233°
2026-04-28 18:22 58.35642 22.31307 29798 ft 507 kts 232°
2026-04-28 18:22 58.33317 22.26225 30076 ft 508 kts 232°
2026-04-28 18:23 58.31004 22.21178 30350 ft 508 kts 232°
2026-04-28 18:23 58.28693 22.16148 30639 ft 508 kts 232°
2026-04-28 18:23 58.26379 22.11121 30916 ft 508 kts 232°
2026-04-28 18:23 58.24057 22.06090 31183 ft 508 kts 232°
2026-04-28 18:24 58.21754 22.01110 31472 ft 507 kts 232°
2026-04-28 18:24 58.20188 21.97729 31666 ft 507 kts 232°
2026-04-28 18:24 58.17121 21.91122 31994 ft 507 kts 232°
2026-04-28 18:24 58.14777 21.86083 32266 ft 507 kts 232°
2026-04-28 18:25 58.12459 21.81114 32551 ft 506 kts 232°
2026-04-28 18:25 58.10140 21.76151 32784 ft 506 kts 232°
2026-04-28 18:25 58.07831 21.71220 33012 ft 506 kts 232°
2026-04-28 18:26 58.03190 21.61338 33489 ft 505 kts 232°
2026-04-28 18:26 58.00850 21.56374 33780 ft 504 kts 232°
2026-04-28 18:26 57.98524 21.51491 34023 ft 504 kts 231°
2026-04-28 18:26 57.96120 21.46582 34286 ft 504 kts 231°
2026-04-28 18:27 57.93738 21.41813 34507 ft 505 kts 230°
2026-04-28 18:27 57.91381 21.37141 34748 ft 504 kts 230°
2026-04-28 18:27 57.88928 21.32301 35040 ft 502 kts 229°
2026-04-28 18:27 57.86504 21.27526 35252 ft 502 kts 229°
2026-04-28 18:28 57.84096 21.22779 35455 ft 502 kts 229°
2026-04-28 18:28 57.81702 21.18057 35638 ft 502 kts 230°
2026-04-28 18:28 57.79258 21.13238 35825 ft 502 kts 230°
2026-04-28 18:28 57.76873 21.08542 36011 ft 501 kts 230°
2026-04-28 18:29 57.74460 21.03795 36209 ft 501 kts 230°
2026-04-28 18:29 57.69638 20.94328 36281 ft 505 kts 230°
2026-04-28 18:30 57.64765 20.84794 36285 ft 510 kts 230°
2026-04-28 18:30 57.59890 20.75300 36292 ft 511 kts 230°
2026-04-28 18:31 57.54993 20.65740 36295 ft 511 kts 230°
2026-04-28 18:31 57.50114 20.56263 36305 ft 511 kts 230°
2026-04-28 18:32 57.45152 20.46759 36310 ft 512 kts 230°
2026-04-28 18:32 57.40200 20.37319 36309 ft 512 kts 230°
2026-04-28 18:33 57.35250 20.27900 36318 ft 513 kts 229°
2026-04-28 18:33 57.30285 20.18478 36321 ft 513 kts 229°
2026-04-28 18:34 57.25292 20.09041 36325 ft 513 kts 229°
2026-04-28 18:34 57.20328 19.99689 36335 ft 514 kts 229°
2026-04-28 18:35 57.15323 19.90268 36336 ft 512 kts 230°
2026-04-28 18:35 57.10524 19.80644 36348 ft 511 kts 232°
2026-04-28 18:36 57.05793 19.70786 36349 ft 511 kts 233°
2026-04-28 18:36 57.01099 19.61022 36350 ft 512 kts 233°
2026-04-28 18:37 56.96370 19.51293 36354 ft 511 kts 232°
2026-04-28 18:37 56.91579 19.41530 36357 ft 511 kts 232°
2026-04-28 18:38 56.86833 19.31936 36362 ft 511 kts 232°
2026-04-28 18:38 56.82055 19.22329 36352 ft 510 kts 232°
2026-04-28 18:39 56.77277 19.12762 36366 ft 511 kts 232°
2026-04-28 18:39 56.72493 19.03219 36359 ft 510 kts 232°
2026-04-28 18:40 56.67673 18.93647 36357 ft 510 kts 232°
2026-04-28 18:40 56.62889 18.84181 36356 ft 509 kts 232°
2026-04-28 18:41 56.58065 18.74678 36351 ft 509 kts 232°
2026-04-28 18:41 56.53260 18.65248 36373 ft 510 kts 232°
2026-04-28 18:42 56.48409 18.55772 36368 ft 510 kts 232°
2026-04-28 18:42 56.43570 18.46357 36372 ft 509 kts 232°
2026-04-28 18:43 56.38751 18.37011 36380 ft 510 kts 232°
2026-04-28 18:43 56.33902 18.27642 36386 ft 511 kts 231°
2026-04-28 18:44 56.29076 18.18363 36383 ft 508 kts 232°
2026-04-28 18:44 56.21787 18.04405 36389 ft 508 kts 232°
2026-04-28 18:45 56.16910 17.95300 36382 ft 510 kts 228°
2026-04-28 18:45 56.11571 17.86844 36378 ft 516 kts 224°
2026-04-28 18:46 56.06002 17.78646 36368 ft 516 kts 224°
2026-04-28 18:46 56.00435 17.70478 36378 ft 513 kts 224°
2026-04-28 18:47 55.94959 17.62355 36372 ft 514 kts 224°
2026-04-28 18:47 55.89494 17.54198 36376 ft 513 kts 225°
2026-04-28 18:48 55.84019 17.46023 36355 ft 512 kts 225°
2026-04-28 18:48 55.78535 17.37852 36378 ft 512 kts 225°
2026-04-28 18:49 55.73969 17.31078 36390 ft 512 kts 224°
2026-04-28 18:49 55.67610 17.21683 36375 ft 511 kts 224°
2026-04-28 18:50 55.62060 17.13816 36390 ft 514 kts 219°
2026-04-28 18:50 55.56072 17.06836 36381 ft 517 kts 215°
2026-04-28 18:51 55.49963 17.00223 36393 ft 518 kts 215°
2026-04-28 18:51 55.43811 16.93569 36383 ft 517 kts 215°
2026-04-28 18:52 55.37714 16.86891 36384 ft 517 kts 216°
2026-04-28 18:52 55.31635 16.80188 36391 ft 516 kts 216°
2026-04-28 18:53 55.25553 16.73478 36385 ft 515 kts 216°
2026-04-28 18:53 55.19515 16.66830 36383 ft 516 kts 216°
2026-04-28 18:54 55.13419 16.60143 36390 ft 517 kts 216°
2026-04-28 18:54 55.07338 16.53498 36391 ft 516 kts 216°
2026-04-28 18:55 55.02245 16.47956 36385 ft 515 kts 216°
2026-04-28 18:55 54.95166 16.40276 36386 ft 517 kts 216°
2026-04-28 18:56 54.89074 16.33697 36385 ft 516 kts 215°
2026-04-28 18:56 54.83001 16.27162 36384 ft 516 kts 215°
2026-04-28 18:57 54.76901 16.20621 36381 ft 515 kts 215°
2026-04-28 18:57 54.70822 16.14127 36381 ft 515 kts 215°
2026-04-28 18:58 54.64725 16.07636 36378 ft 514 kts 215°
2026-04-28 18:58 54.58636 16.01176 36382 ft 515 kts 215°
2026-04-28 18:59 54.52549 15.94740 36374 ft 515 kts 215°
2026-04-28 18:59 54.46408 15.88273 36375 ft 514 kts 215°
2026-04-28 19:00 54.40355 15.81923 36370 ft 513 kts 215°
2026-04-28 19:00 54.34264 15.75552 36366 ft 513 kts 215°
2026-04-28 19:01 54.28173 15.69204 36370 ft 513 kts 215°
2026-04-28 19:01 54.22037 15.62832 36366 ft 512 kts 215°
2026-04-28 19:02 54.15976 15.56562 36364 ft 511 kts 215°
2026-04-28 19:02 54.09868 15.50263 36359 ft 511 kts 215°
2026-04-28 19:03 54.03812 15.44037 36362 ft 512 kts 215°
2026-04-28 19:03 53.97719 15.37796 36356 ft 511 kts 214°
2026-04-28 19:04 53.91627 15.31582 36356 ft 511 kts 214°
2026-04-28 19:04 53.85540 15.25391 36353 ft 509 kts 214°
2026-04-28 19:05 53.79434 15.19202 36354 ft 511 kts 214°
2026-04-28 19:05 53.73378 15.13082 36355 ft 510 kts 214°
2026-04-28 19:06 53.68314 15.07982 36357 ft 508 kts 214°
2026-04-28 19:06 53.61229 15.00872 36357 ft 508 kts 214°
2026-04-28 19:07 53.55176 14.94824 36352 ft 507 kts 214°
2026-04-28 19:07 53.49108 14.88780 36347 ft 507 kts 214°
2026-04-28 19:08 53.43044 14.82756 36338 ft 504 kts 214°
2026-04-28 19:08 53.37029 14.76803 36339 ft 504 kts 214°
2026-04-28 19:09 53.30995 14.70848 36336 ft 504 kts 214°
2026-04-28 19:09 53.24972 14.64927 36333 ft 502 kts 214°
2026-04-28 19:10 53.18946 14.59023 36329 ft 502 kts 214°
2026-04-28 19:10 53.13030 14.53245 36328 ft 502 kts 214°
2026-04-28 19:11 53.07011 14.47386 36325 ft 501 kts 214°
2026-04-28 19:11 53.01007 14.41560 36324 ft 499 kts 214°
2026-04-28 19:12 52.95057 14.35806 36328 ft 499 kts 213°
2026-04-28 19:12 52.89079 14.30042 36332 ft 498 kts 213°
2026-04-28 19:13 52.83170 14.24363 36331 ft 498 kts 213°
2026-04-28 19:13 52.77128 14.18699 36326 ft 498 kts 211°
2026-04-28 19:14 52.71025 14.13363 36323 ft 497 kts 210°
2026-04-28 19:14 52.64930 14.08135 36317 ft 495 kts 210°
2026-04-28 19:15 52.58826 14.02889 36314 ft 495 kts 211°
2026-04-28 19:15 52.53784 13.98544 36316 ft 494 kts 211°
2026-04-28 19:16 52.46730 13.92459 36313 ft 494 kts 211°
2026-04-28 19:16 52.40808 13.87358 36310 ft 492 kts 211°
2026-04-28 19:17 52.34958 13.82332 36309 ft 491 kts 211°
2026-04-28 19:17 52.29059 13.77279 36311 ft 491 kts 211°
2026-04-28 19:18 52.23092 13.72181 36305 ft 489 kts 211°
2026-04-28 19:18 52.17062 13.67047 36304 ft 491 kts 211°
2026-04-28 19:19 52.11082 13.61971 36300 ft 489 kts 211°
2026-04-28 19:19 52.05043 13.56862 36308 ft 488 kts 211°
2026-04-28 19:20 51.99077 13.51830 36308 ft 487 kts 211°
2026-04-28 19:20 51.93043 13.46756 36306 ft 487 kts 211°
2026-04-28 19:21 51.87071 13.41748 36304 ft 487 kts 211°
2026-04-28 19:21 51.81134 13.36788 36303 ft 485 kts 211°
2026-04-28 19:22 51.76124 13.32612 36302 ft 486 kts 210°
2026-04-28 19:22 51.69182 13.26842 36298 ft 485 kts 210°
2026-04-28 19:23 51.63347 13.22008 36298 ft 485 kts 210°
2026-04-28 19:23 51.57335 13.17043 36296 ft 484 kts 211°
2026-04-28 19:24 51.51488 13.12229 36296 ft 483 kts 211°
2026-04-28 19:24 51.45499 13.07308 35974 ft 481 kts 211°
2026-04-28 19:25 51.42577 13.04818 36211 ft 478 kts 212°
2026-04-28 19:25 51.39700 13.02247 36266 ft 480 kts 213°
2026-04-28 19:25 51.33946 12.96943 36277 ft 484 kts 214°
2026-04-28 19:26 51.28276 12.91709 36276 ft 481 kts 214°
2026-04-28 19:26 51.22477 12.86406 36280 ft 481 kts 214°
2026-04-28 19:27 51.16687 12.81158 36275 ft 478 kts 214°
2026-04-28 19:27 51.11002 12.76035 36274 ft 479 kts 213°
2026-04-28 19:28 51.05352 12.70963 36282 ft 478 kts 213°
2026-04-28 19:28 50.99672 12.65884 36288 ft 477 kts 213°
2026-04-28 19:29 50.94909 12.61637 36282 ft 477 kts 214°
2026-04-28 19:29 50.88296 12.55754 36283 ft 476 kts 214°
2026-04-28 19:30 50.82594 12.50698 36269 ft 475 kts 214°
2026-04-28 19:30 50.76922 12.45682 36268 ft 475 kts 214°
2026-04-28 19:31 50.71172 12.40613 36251 ft 474 kts 214°
2026-04-28 19:31 50.65418 12.35557 36234 ft 472 kts 214°
2026-04-28 19:32 50.59732 12.30569 36228 ft 473 kts 213°
2026-04-28 19:32 50.54022 12.25580 36225 ft 472 kts 213°
2026-04-28 19:33 50.48329 12.20617 36237 ft 472 kts 214°
2026-04-28 19:33 50.42631 12.15666 36215 ft 469 kts 214°
2026-04-28 19:34 50.37014 12.10797 36206 ft 468 kts 214°
2026-04-28 19:34 50.31355 12.05902 36213 ft 469 kts 214°
2026-04-28 19:35 50.25745 12.01082 36215 ft 468 kts 213°
2026-04-28 19:35 50.19875 11.96751 36212 ft 472 kts 209°
2026-04-28 19:36 50.14302 11.93035 36203 ft 470 kts 208°
2026-04-28 19:36 50.07772 11.88704 36204 ft 468 kts 209°
2026-04-28 19:37 50.03142 11.85597 36194 ft 468 kts 210°
2026-04-28 19:37 49.95954 11.80735 36191 ft 467 kts 210°
2026-04-28 19:38 49.90031 11.76720 36179 ft 468 kts 210°
2026-04-28 19:38 49.84120 11.72714 36183 ft 466 kts 210°
2026-04-28 19:39 49.78190 11.68699 36177 ft 466 kts 210°
2026-04-28 19:39 49.72254 11.64694 36182 ft 466 kts 210°
2026-04-28 19:40 49.66358 11.60727 36174 ft 464 kts 210°
2026-04-28 19:40 49.60503 11.56797 36165 ft 464 kts 210°
2026-04-28 19:41 49.54617 11.52858 36165 ft 464 kts 211°
2026-04-28 19:41 49.48780 11.48960 36156 ft 463 kts 210°
2026-04-28 19:42 49.42961 11.45084 36152 ft 464 kts 211°
2026-04-28 19:42 49.38117 11.41868 36156 ft 463 kts 211°
2026-04-28 19:43 49.31292 11.37352 36149 ft 461 kts 211°
2026-04-28 19:43 49.25412 11.33460 36144 ft 463 kts 210°
2026-04-28 19:44 49.19550 11.29599 36140 ft 459 kts 210°
2026-04-28 19:44 49.13703 11.25755 36145 ft 462 kts 210°
2026-04-28 19:45 49.07805 11.21885 36131 ft 462 kts 210°
2026-04-28 19:45 49.01891 11.18021 36127 ft 460 kts 211°
2026-04-28 19:46 48.96122 11.14257 36119 ft 458 kts 211°
2026-04-28 19:46 48.90284 11.10455 36124 ft 461 kts 210°
2026-04-28 19:47 48.84595 11.06763 36125 ft 458 kts 211°
2026-04-28 19:47 48.78688 11.02925 36129 ft 462 kts 210°
2026-04-28 19:48 48.72805 10.99123 36130 ft 461 kts 210°
2026-04-28 19:48 48.66964 10.95369 36134 ft 460 kts 210°
2026-04-28 19:49 48.61105 10.91611 36130 ft 461 kts 210°
2026-04-28 19:49 48.55207 10.87834 36130 ft 462 kts 210°
2026-04-28 19:50 48.46578 10.82321 36129 ft 462 kts 210°
2026-04-28 19:51 48.40736 10.78601 36125 ft 462 kts 210°
2026-04-28 19:51 48.34965 10.74938 36115 ft 464 kts 210°
2026-04-28 19:52 48.29100 10.71228 36112 ft 460 kts 210°
2026-04-28 19:52 48.23284 10.67552 36109 ft 463 kts 210°
2026-04-28 19:53 48.17413 10.63851 36109 ft 462 kts 210°
2026-04-28 19:53 48.11539 10.60157 36109 ft 463 kts 210°
2026-04-28 19:54 48.05720 10.56506 36109 ft 462 kts 210°
2026-04-28 19:54 47.99824 10.52814 36103 ft 462 kts 210°
2026-04-28 19:55 47.93956 10.49152 36099 ft 462 kts 210°
2026-04-28 19:55 47.88321 10.45644 36103 ft 462 kts 210°
2026-04-28 19:56 47.82325 10.41923 36104 ft 463 kts 210°
2026-04-28 19:56 47.76619 10.38388 36102 ft 462 kts 210°
2026-04-28 19:57 47.70740 10.34756 36103 ft 461 kts 209°
2026-04-28 19:57 47.64943 10.31175 36114 ft 464 kts 208°
2026-04-28 19:58 47.59040 10.27548 36120 ft 462 kts 208°
2026-04-28 19:58 47.53194 10.23963 36121 ft 463 kts 209°
2026-04-28 19:59 47.47318 10.20366 36122 ft 463 kts 208°
2026-04-28 19:59 47.41599 10.16854 36140 ft 463 kts 209°
2026-04-28 20:00 47.35753 10.13097 36141 ft 460 kts 210°
2026-04-28 20:00 47.29952 10.09315 36141 ft 461 kts 210°
2026-04-28 20:01 47.24145 10.05543 36143 ft 461 kts 210°
2026-04-28 20:01 47.18338 10.01792 36146 ft 461 kts 210°
2026-04-28 20:02 47.12596 9.98097 36155 ft 460 kts 209°
2026-04-28 20:02 47.06803 9.94383 36154 ft 461 kts 209°
2026-04-28 20:03 47.00933 9.90632 36151 ft 461 kts 209°
2026-04-28 20:03 46.95158 9.86952 36153 ft 461 kts 209°
2026-04-28 20:04 46.89687 9.83479 36147 ft 460 kts 209°
2026-04-28 20:04 46.84483 9.80179 36135 ft 461 kts 209°
2026-04-28 20:05 46.77837 9.76579 36117 ft 463 kts 204°
2026-04-28 20:05 46.71622 9.73773 36112 ft 463 kts 202°
2026-04-28 20:06 46.65624 9.71116 35923 ft 449 kts 203°
2026-04-28 20:06 46.62674 9.69798 35395 ft 448 kts 203°
2026-04-28 20:06 46.59801 9.68499 34748 ft 450 kts 204°
2026-04-28 20:06 46.56974 9.67208 33975 ft 452 kts 203°
2026-04-28 20:07 46.53972 9.65831 33165 ft 453 kts 203°
2026-04-28 20:07 46.52037 9.64944 32644 ft 454 kts 203°
2026-04-28 20:07 46.48405 9.63278 31652 ft 454 kts 203°
2026-04-28 20:07 46.45682 9.62026 30902 ft 455 kts 202°
2026-04-28 20:08 46.42522 9.60575 29995 ft 455 kts 202°
2026-04-28 20:08 46.39610 9.59230 29116 ft 456 kts 202°
2026-04-28 20:08 46.36603 9.57845 28199 ft 458 kts 202°
2026-04-28 20:08 46.33620 9.56442 27295 ft 457 kts 203°
2026-04-28 20:09 46.30686 9.54796 26360 ft 456 kts 207°
2026-04-28 20:09 46.27868 9.52877 25380 ft 456 kts 210°
2026-04-28 20:09 46.25177 9.50835 24505 ft 455 kts 212°
2026-04-28 20:09 46.22450 9.48653 23883 ft 448 kts 213°
2026-04-28 20:10 46.19750 9.46443 23220 ft 447 kts 213°
2026-04-28 20:10 46.17056 9.44223 22528 ft 446 kts 213°
2026-04-28 20:10 46.14397 9.42033 21806 ft 442 kts 213°
2026-04-28 20:10 46.11713 9.39833 21224 ft 434 kts 212°
2026-04-28 20:11 46.09124 9.37724 21109 ft 431 kts 212°
2026-04-28 20:11 46.06501 9.35592 20983 ft 430 kts 212°
2026-04-28 20:11 46.04002 9.33566 20264 ft 435 kts 211°
2026-04-28 20:11 46.01363 9.31435 19724 ft 427 kts 211°
2026-04-28 20:12 45.98777 9.29356 19029 ft 423 kts 211°
2026-04-28 20:12 45.96231 9.27311 18370 ft 418 kts 211°
2026-04-28 20:12 45.93702 9.25284 17695 ft 413 kts 210°
2026-04-28 20:12 45.92064 9.23973 17115 ft 409 kts 210°
2026-04-28 20:13 45.88794 9.21360 15866 ft 403 kts 210°
2026-04-28 20:13 45.86381 9.19414 15091 ft 401 kts 210°
2026-04-28 20:13 45.83986 9.17491 14472 ft 396 kts 209°
2026-04-28 20:13 45.81659 9.15642 13942 ft 389 kts 210°
2026-04-28 20:14 45.79333 9.13794 13393 ft 383 kts 209°
2026-04-28 20:14 45.77147 9.12061 13086 ft 378 kts 209°
2026-04-28 20:14 45.74788 9.10193 12945 ft 377 kts 208°
2026-04-28 20:14 45.72548 9.08427 12571 ft 375 kts 208°
2026-04-28 20:15 45.70262 9.06622 11935 ft 376 kts 208°
2026-04-28 20:15 45.67987 9.04824 11083 ft 375 kts 208°
2026-04-28 20:15 45.65807 9.03098 10196 ft 371 kts 208°
2026-04-28 20:15 45.63589 9.01342 9889 ft 366 kts 207°
2026-04-28 20:16 45.61381 8.99593 9818 ft 369 kts 207°
2026-04-28 20:16 45.59156 8.97827 9427 ft 360 kts 207°
2026-04-28 20:16 45.56994 8.96110 9075 ft 350 kts 208°
2026-04-28 20:16 45.54916 8.94460 9042 ft 331 kts 208°
2026-04-28 20:17 45.52967 8.92911 9038 ft 312 kts 208°
2026-04-28 20:17 45.51113 8.91609 9040 ft 294 kts 200°
2026-04-28 20:17 45.49207 8.91004 9040 ft 276 kts 179°
2026-04-28 20:17 45.47350 8.91351 9044 ft 265 kts 167°
2026-04-28 20:18 45.45558 8.91950 9041 ft 265 kts 166°
2026-04-28 20:18 45.44346 8.92353 9039 ft 266 kts 167°
2026-04-28 20:18 45.41953 8.93086 9042 ft 261 kts 167°
2026-04-28 20:18 45.40201 8.93617 9037 ft 257 kts 168°
2026-04-28 20:19 45.38457 8.94105 9047 ft 256 kts 167°
2026-04-28 20:19 45.36655 8.94643 9046 ft 270 kts 167°